Time,TemperatureF,DewpointF,PressureIn,WindDirection,WindDirectionDegrees,WindSpeedMPH,WindSpeedGustMPH,Humidity,HourlyPrecipIn,Conditions,Clouds,dailyrainin,SoftwareType,DateUTC
2013-05-14 00:01:00,65.0,32.0,29.83,NNW,336,7.0,8.0,29,0.00,,,0.00,,2013-05-14 06:01:00,
2013-05-14 00:31:00,64.0,32.0,29.83,North,355,4.0,7.0,30,0.00,,,0.00,,2013-05-14 06:31:00,
2013-05-14 00:52:00,67.0,33.0,29.82,NNW,337,0.0,5.0,28,0.00,,,0.00,,2013-05-14 06:52:00,
2013-05-14 01:01:00,68.0,34.0,29.82,NW,309,1.0,6.0,28,0.00,,,0.00,,2013-05-14 07:01:00,
2013-05-14 01:11:00,68.0,34.0,29.82,NW,309,1.0,6.0,28,0.00,,,0.00,,2013-05-14 07:11:00,
2013-05-14 01:21:00,70.0,34.0,29.82,SSW,202,7.0,10.0,26,0.00,,,0.00,,2013-05-14 07:21:00,
2013-05-14 01:31:00,73.0,34.0,29.82,SSW,205,7.0,9.0,24,0.00,,,0.00,,2013-05-14 07:31:00,
2013-05-14 01:41:00,71.0,33.0,29.81,SSW,196,6.0,11.0,25,0.00,,,0.00,,2013-05-14 07:41:00,
2013-05-14 01:52:00,71.0,33.0,29.81,SSW,196,6.0,11.0,25,0.00,,,0.00,,2013-05-14 07:52:00,
2013-05-14 02:02:00,75.0,31.0,29.81,SW,234,8.0,13.0,20,0.00,,,0.00,,2013-05-14 08:02:00,
2013-05-14 02:21:00,73.0,31.0,29.81,WSW,245,8.0,12.0,21,0.00,,,0.00,,2013-05-14 08:21:00,
2013-05-14 02:31:00,72.0,31.0,29.80,WSW,241,7.0,11.0,22,0.00,,,0.00,,2013-05-14 08:31:00,
2013-05-14 02:41:00,70.0,30.0,29.82,WNW,298,5.0,14.0,23,0.00,,,0.00,,2013-05-14 08:41:00,
2013-05-14 02:52:00,70.0,30.0,29.82,WNW,298,5.0,14.0,23,0.00,,,0.00,,2013-05-14 08:52:00,
2013-05-14 03:01:00,69.0,32.0,29.82,NW,314,5.0,10.0,25,0.00,,,0.00,,2013-05-14 09:01:00,
2013-05-14 03:11:00,69.0,32.0,29.82,NW,314,5.0,10.0,25,0.00,,,0.00,,2013-05-14 09:11:00,
2013-05-14 03:21:00,67.0,35.0,29.82,WNW,291,12.0,15.0,31,0.00,,,0.00,,2013-05-14 09:21:00,
2013-05-14 03:32:00,67.0,36.0,29.82,WNW,289,11.0,14.0,32,0.00,,,0.00,,2013-05-14 09:32:00,
2013-05-14 03:44:00,65.0,37.0,29.83,West,272,17.0,20.0,36,0.00,,,0.00,,2013-05-14 09:44:00,
2013-05-14 03:54:00,65.0,37.0,29.83,West,272,17.0,20.0,36,0.00,,,0.00,,2013-05-14 09:54:00,
2013-05-14 04:04:00,64.0,39.0,29.83,West,272,19.0,27.0,40,0.00,,,0.00,,2013-05-14 10:04:00,
2013-05-14 04:14:00,64.0,39.0,29.83,West,272,19.0,27.0,40,0.00,,,0.00,,2013-05-14 10:14:00,
2013-05-14 04:25:00,65.0,41.0,29.84,WNW,282,22.0,27.0,41,0.00,,,0.00,,2013-05-14 10:25:00,
2013-05-14 04:32:00,64.0,41.0,29.85,WNW,290,18.0,27.0,43,0.00,,,0.00,,2013-05-14 10:32:00,
2013-05-14 04:42:00,64.0,41.0,29.85,WNW,290,18.0,27.0,43,0.00,,,0.00,,2013-05-14 10:42:00,
2013-05-14 04:52:00,63.0,41.0,29.85,West,268,20.0,27.0,44,0.00,,,0.00,,2013-05-14 10:52:00,
2013-05-14 05:02:00,63.0,42.0,29.84,WNW,285,20.0,26.0,46,0.00,,,0.00,,2013-05-14 11:02:00,
2013-05-14 05:11:00,63.0,42.0,29.84,WNW,285,20.0,26.0,46,0.00,,,0.00,,2013-05-14 11:11:00,
2013-05-14 05:21:00,62.0,42.0,29.85,WNW,282,20.0,24.0,48,0.00,,,0.00,,2013-05-14 11:21:00,
2013-05-14 05:32:00,62.0,42.0,29.85,WNW,294,17.0,24.0,48,0.00,,,0.00,,2013-05-14 11:32:00,
2013-05-14 05:43:00,62.0,42.0,29.85,WNW,294,17.0,24.0,48,0.00,,,0.00,,2013-05-14 11:43:00,
2013-05-14 05:52:00,61.0,42.0,29.87,NNW,340,9.0,19.0,49,0.00,,,0.00,,2013-05-14 11:52:00,
2013-05-14 06:02:00,58.0,41.0,29.88,NNW,331,11.0,14.0,54,0.00,,,0.00,,2013-05-14 12:02:00,
2013-05-14 06:12:00,58.0,41.0,29.88,NNW,331,11.0,14.0,54,0.00,,,0.00,,2013-05-14 12:12:00,
2013-05-14 06:21:00,58.0,41.0,29.88,NW,319,11.0,15.0,54,0.00,,,0.00,,2013-05-14 12:21:00,
2013-05-14 06:31:00,58.0,42.0,29.89,North,349,7.0,12.0,55,0.00,,,0.00,,2013-05-14 12:31:00,
2013-05-14 06:42:00,58.0,42.0,29.89,North,349,7.0,12.0,55,0.00,,,0.00,,2013-05-14 12:42:00,
2013-05-14 06:52:00,60.0,43.0,29.89,NW,304,12.0,15.0,53,0.00,,,0.00,,2013-05-14 12:52:00,
2013-05-14 07:01:00,59.0,42.0,29.90,NNW,348,9.0,12.0,54,0.00,,,0.00,,2013-05-14 13:01:00,
2013-05-14 07:11:00,59.0,42.0,29.90,NNW,348,9.0,12.0,54,0.00,,,0.00,,2013-05-14 13:11:00,
2013-05-14 07:22:00,59.0,43.0,29.91,NNE,13,9.0,12.0,56,0.00,,,0.00,,2013-05-14 13:22:00,
2013-05-14 07:31:00,59.0,39.0,29.91,NNE,17,6.0,9.0,48,0.00,,,0.00,,2013-05-14 13:31:00,
2013-05-14 07:41:00,59.0,39.0,29.91,NNE,17,6.0,9.0,48,0.00,,,0.00,,2013-05-14 13:41:00,
2013-05-14 07:52:00,59.0,39.0,29.91,NNE,17,6.0,9.0,48,0.00,,,0.00,,2013-05-14 13:52:00,
2013-05-14 08:01:00,60.0,41.0,29.92,NE,55,1.0,6.0,50,0.00,,,0.00,,2013-05-14 14:01:00,
2013-05-14 08:11:00,61.0,41.0,29.92,ENE,58,0.0,0.0,47,0.00,,,0.00,,2013-05-14 14:11:00,
2013-05-14 08:22:00,61.0,41.0,29.92,ENE,58,0.0,0.0,47,0.00,,,0.00,,2013-05-14 14:22:00,
2013-05-14 08:31:00,62.0,42.0,29.93,NE,54,0.0,0.0,47,0.00,,,0.00,,2013-05-14 14:31:00,
2013-05-14 08:41:00,62.0,42.0,29.93,NE,54,0.0,0.0,47,0.00,,,0.00,,2013-05-14 14:41:00,
2013-05-14 08:52:00,63.0,41.0,29.93,NNW,334,0.0,0.0,45,0.00,,,0.00,,2013-05-14 14:52:00,
2013-05-14 09:01:00,65.0,43.0,29.94,NNW,335,0.0,0.0,45,0.00,,,0.00,,2013-05-14 15:01:00,
2013-05-14 09:11:00,65.0,43.0,29.94,NNW,335,0.0,0.0,45,0.00,,,0.00,,2013-05-14 15:11:00,
2013-05-14 09:21:00,65.0,42.0,29.94,NNE,20,0.0,5.0,43,0.00,,,0.00,,2013-05-14 15:21:00,
2013-05-14 09:32:00,66.0,43.0,29.94,NE,55,1.0,3.0,43,0.00,,,0.00,,2013-05-14 15:32:00,
2013-05-14 09:42:00,66.0,43.0,29.93,East,91,5.0,6.0,44,0.00,,,0.00,,2013-05-14 15:42:00,
2013-05-14 09:53:00,66.0,43.0,29.93,East,91,5.0,6.0,44,0.00,,,0.00,,2013-05-14 15:53:00,
2013-05-14 10:02:00,66.0,44.0,29.93,East,98,4.0,7.0,45,0.00,,,0.00,,2013-05-14 16:02:00,
2013-05-14 10:12:00,66.0,44.0,29.93,East,98,4.0,7.0,45,0.00,,,0.00,,2013-05-14 16:12:00,
2013-05-14 10:23:00,68.0,45.0,29.93,East,97,5.0,8.0,44,0.00,,,0.00,,2013-05-14 16:23:00,
2013-05-14 10:33:00,69.0,44.0,29.92,ESE,105,1.0,8.0,41,0.00,,,0.00,,2013-05-14 16:33:00,
2013-05-14 10:43:00,69.0,44.0,29.92,ESE,105,1.0,8.0,41,0.00,,,0.00,,2013-05-14 16:43:00,
2013-05-14 10:54:00,70.0,44.0,29.92,ENE,65,1.0,5.0,39,0.00,,,0.00,,2013-05-14 16:54:00,
2013-05-14 11:03:00,71.0,43.0,29.92,ENE,64,0.0,0.0,36,0.00,,,0.00,,2013-05-14 17:03:00,
2013-05-14 11:13:00,71.0,43.0,29.92,ENE,64,0.0,0.0,36,0.00,,,0.00,,2013-05-14 17:13:00,
2013-05-14 11:24:00,72.0,41.0,29.91,NE,40,3.0,7.0,33,0.00,,,0.00,,2013-05-14 17:24:00,
2013-05-14 11:32:00,73.0,41.0,29.91,NE,41,1.0,9.0,32,0.00,,,0.00,,2013-05-14 17:32:00,
2013-05-14 11:43:00,73.0,41.0,29.91,NE,41,1.0,9.0,32,0.00,,,0.00,,2013-05-14 17:43:00,
2013-05-14 11:52:00,74.0,41.0,29.91,ENE,74,0.0,6.0,31,0.00,,,0.00,,2013-05-14 17:52:00,
2013-05-14 12:01:00,74.0,41.0,29.91,WNW,297,6.0,14.0,30,0.00,,,0.00,,2013-05-14 18:01:00,
2013-05-14 12:12:00,74.0,41.0,29.91,WNW,297,6.0,14.0,30,0.00,,,0.00,,2013-05-14 18:12:00,
2013-05-14 12:22:00,74.0,38.0,29.90,NW,312,10.0,24.0,27,0.00,,,0.00,,2013-05-14 18:22:00,
2013-05-14 12:31:00,75.0,40.0,29.90,WNW,289,11.0,14.0,28,0.00,,,0.00,,2013-05-14 18:31:00,
2013-05-14 12:42:00,75.0,40.0,29.90,WNW,289,11.0,14.0,28,0.00,,,0.00,,2013-05-14 18:42:00,
2013-05-14 12:52:00,74.0,40.0,29.89,NW,319,8.0,14.0,29,0.00,,,0.00,,2013-05-14 18:52:00,
2013-05-14 13:01:00,75.0,40.0,29.89,NE,51,2.0,16.0,28,0.00,,,0.00,,2013-05-14 19:01:00,
2013-05-14 13:11:00,75.0,40.0,29.89,NE,51,2.0,16.0,28,0.00,,,0.00,,2013-05-14 19:11:00,
2013-05-14 13:21:00,76.0,41.0,29.88,NE,38,4.0,8.0,28,0.00,,,0.00,,2013-05-14 19:21:00,
2013-05-14 13:31:00,75.0,41.0,29.87,WSW,251,5.0,9.0,29,0.00,,,0.00,,2013-05-14 19:31:00,
2013-05-14 13:41:00,75.0,41.0,29.87,WSW,251,5.0,9.0,29,0.00,,,0.00,,2013-05-14 19:41:00,
2013-05-14 13:52:00,77.0,40.0,29.87,SE,146,1.0,8.0,27,0.00,,,0.00,,2013-05-14 19:52:00,
2013-05-14 14:02:00,77.0,40.0,29.86,ENE,61,0.0,0.0,27,0.00,,,0.00,,2013-05-14 20:02:00,
2013-05-14 14:11:00,77.0,40.0,29.86,ENE,61,0.0,0.0,27,0.00,,,0.00,,2013-05-14 20:11:00,
2013-05-14 14:22:00,78.0,41.0,29.85,NNW,346,4.0,11.0,27,0.00,,,0.00,,2013-05-14 20:22:00,
2013-05-14 14:32:00,79.0,38.0,29.85,NW,312,2.0,12.0,23,0.00,,,0.00,,2013-05-14 20:32:00,
2013-05-14 14:43:00,79.0,38.0,29.85,NW,312,2.0,12.0,23,0.00,,,0.00,,2013-05-14 20:43:00,
2013-05-14 14:52:00,78.0,37.0,29.85,WNW,286,7.0,20.0,23,0.00,,,0.00,,2013-05-14 20:52:00,
2013-05-14 15:03:00,80.0,39.0,29.84,WNW,294,6.0,15.0,23,0.00,,,0.00,,2013-05-14 21:03:00,
2013-05-14 15:12:00,80.0,39.0,29.84,WNW,294,6.0,15.0,23,0.00,,,0.00,,2013-05-14 21:12:00,
2013-05-14 15:22:00,79.0,37.0,29.83,SSW,211,9.0,15.0,22,0.00,,,0.00,,2013-05-14 21:22:00,
2013-05-14 15:33:00,80.0,38.0,29.83,NW,315,2.0,15.0,22,0.00,,,0.00,,2013-05-14 21:33:00,
2013-05-14 15:42:00,80.0,38.0,29.83,NW,315,2.0,15.0,22,0.00,,,0.00,,2013-05-14 21:42:00,
2013-05-14 15:53:00,80.0,37.0,29.83,West,277,12.0,19.0,21,0.00,,,0.00,,2013-05-14 21:53:00,
2013-05-14 16:03:00,81.0,37.0,29.82,SSW,208,1.0,9.0,21,0.00,,,0.00,,2013-05-14 22:03:00,
2013-05-14 16:13:00,81.0,37.0,29.82,SSW,208,1.0,9.0,21,0.00,,,0.00,,2013-05-14 22:13:00,
2013-05-14 16:24:00,80.0,34.0,29.82,SW,231,7.0,19.0,19,0.00,,,0.00,,2013-05-14 22:24:00,
2013-05-14 16:34:00,80.0,34.0,29.81,WNW,284,7.0,14.0,19,0.00,,,0.00,,2013-05-14 22:34:00,
2013-05-14 16:45:00,80.0,34.0,29.81,WNW,284,7.0,14.0,19,0.00,,,0.00,,2013-05-14 22:45:00,
2013-05-14 16:54:00,80.0,34.0,29.80,NW,315,5.0,11.0,19,0.00,,,0.00,,2013-05-14 22:54:00,
2013-05-14 17:03:00,81.0,32.0,29.80,SW,229,2.0,16.0,17,0.00,,,0.00,,2013-05-14 23:03:00,
2013-05-14 17:12:00,81.0,32.0,29.80,SW,229,2.0,16.0,17,0.00,,,0.00,,2013-05-14 23:12:00,
2013-05-14 17:21:00,80.0,33.0,29.80,WNW,292,13.0,18.0,18,0.00,,,0.00,,2013-05-14 23:21:00,
2013-05-14 17:31:00,81.0,35.0,29.80,WSW,252,10.0,19.0,19,0.00,,,0.00,,2013-05-14 23:31:00,
2013-05-14 17:44:00,81.0,35.0,29.80,WSW,252,10.0,19.0,19,0.00,,,0.00,,2013-05-14 23:44:00,
2013-05-14 17:52:00,80.0,33.0,29.80,West,269,15.0,21.0,18,0.00,,,0.00,,2013-05-14 23:52:00,
2013-05-14 18:01:00,80.0,34.0,29.79,West,281,6.0,11.0,19,0.00,,,0.00,,2013-05-15 00:01:00,
2013-05-14 18:11:00,80.0,34.0,29.79,West,281,6.0,11.0,19,0.00,,,0.00,,2013-05-15 00:11:00,
2013-05-14 18:21:00,79.0,34.0,29.80,WNW,285,15.0,22.0,20,0.00,,,0.00,,2013-05-15 00:21:00,
2013-05-14 18:32:00,79.0,36.0,29.80,WNW,287,12.0,16.0,21,0.00,,,0.00,,2013-05-15 00:32:00,
2013-05-14 18:41:00,79.0,36.0,29.80,WNW,287,12.0,16.0,21,0.00,,,0.00,,2013-05-15 00:41:00,
2013-05-14 18:52:00,79.0,36.0,29.79,WNW,293,11.0,16.0,21,0.00,,,0.00,,2013-05-15 00:52:00,
2013-05-14 19:01:00,78.0,37.0,29.80,NW,304,18.0,26.0,23,0.00,,,0.00,,2013-05-15 01:01:00,
2013-05-14 19:11:00,78.0,37.0,29.80,NW,304,18.0,26.0,23,0.00,,,0.00,,2013-05-15 01:11:00,
2013-05-14 19:21:00,75.0,39.0,29.80,NW,310,24.0,33.0,27,0.00,,,0.00,,2013-05-15 01:21:00,
2013-05-14 19:31:00,74.0,38.0,29.80,NW,306,20.0,25.0,27,0.00,,,0.00,,2013-05-15 01:31:00,
2013-05-14 19:42:00,74.0,38.0,29.80,NW,306,20.0,25.0,27,0.00,,,0.00,,2013-05-15 01:42:00,
2013-05-14 19:52:00,73.0,37.0,29.80,NW,316,22.0,27.0,27,0.00,,,0.00,,2013-05-15 01:52:00,
2013-05-14 20:01:00,73.0,38.0,29.81,NW,311,23.0,28.0,28,0.00,,,0.00,,2013-05-15 02:01:00,
2013-05-14 20:11:00,73.0,38.0,29.81,NW,311,23.0,28.0,28,0.00,,,0.00,,2013-05-15 02:11:00,
2013-05-14 20:21:00,72.0,37.0,29.82,NW,315,26.0,33.0,28,0.00,,,0.00,,2013-05-15 02:21:00,
2013-05-14 20:31:00,71.0,37.0,29.85,NW,315,26.0,36.0,29,0.00,,,0.00,,2013-05-15 02:31:00,
2013-05-14 20:41:00,71.0,37.0,29.85,NW,315,26.0,36.0,29,0.00,,,0.00,,2013-05-15 02:41:00,
2013-05-14 20:52:00,69.0,39.0,29.86,NNW,345,21.0,36.0,34,0.00,,,0.00,,2013-05-15 02:52:00,
2013-05-14 21:01:00,69.0,39.0,29.86,NW,309,25.0,31.0,34,0.00,,,0.00,,2013-05-15 03:01:00,
2013-05-14 21:12:00,69.0,39.0,29.86,NW,309,25.0,31.0,34,0.00,,,0.00,,2013-05-15 03:12:00,
2013-05-14 21:21:00,68.0,40.0,29.87,NNW,335,25.0,31.0,36,0.00,,,0.00,,2013-05-15 03:21:00,
2013-05-14 21:33:00,67.0,40.0,29.88,NNW,338,17.0,24.0,37,0.00,,,0.00,,2013-05-15 03:33:00,
2013-05-14 21:44:00,67.0,40.0,29.88,North,355,14.0,22.0,37,0.00,,,0.00,,2013-05-15 03:44:00,
2013-05-14 21:54:00,67.0,40.0,29.88,North,355,14.0,22.0,37,0.00,,,0.00,,2013-05-15 03:54:00,
2013-05-14 22:03:00,67.0,40.0,29.88,NNW,344,12.0,18.0,37,0.00,,,0.00,,2013-05-15 04:03:00,
2013-05-14 22:12:00,67.0,40.0,29.88,NNW,344,12.0,18.0,37,0.00,,,0.00,,2013-05-15 04:12:00,
2013-05-14 22:23:00,66.0,40.0,29.89,NNW,331,7.0,12.0,38,0.00,,,0.00,,2013-05-15 04:23:00,
2013-05-14 22:32:00,66.0,40.0,29.89,North,360,6.0,8.0,38,0.00,,,0.00,,2013-05-15 04:32:00,
2013-05-14 22:42:00,66.0,40.0,29.89,North,360,6.0,8.0,38,0.00,,,0.00,,2013-05-15 04:42:00,
2013-05-14 22:52:00,67.0,39.0,29.89,NW,323,9.0,13.0,36,0.00,,,0.00,,2013-05-15 04:52:00,
2013-05-14 23:02:00,67.0,41.0,29.88,NW,308,15.0,22.0,38,0.00,,,0.00,,2013-05-15 05:02:00,
2013-05-14 23:11:00,67.0,41.0,29.88,NW,308,15.0,22.0,38,0.00,,,0.00,,2013-05-15 05:11:00,
2013-05-14 23:22:00,66.0,40.0,29.89,NW,319,10.0,16.0,39,0.00,,,0.00,,2013-05-15 05:22:00,
2013-05-14 23:32:00,65.0,40.0,29.89,NW,307,6.0,9.0,40,0.00,,,0.00,,2013-05-15 05:32:00,
2013-05-14 23:42:00,65.0,40.0,29.89,NW,307,6.0,9.0,40,0.00,,,0.00,,2013-05-15 05:42:00,
2013-05-14 23:52:00,64.0,42.0,29.89,ENE,72,3.0,6.0,44,0.00,,,0.00,,2013-05-15 05:52:00,